Tracking 31027 objects as of 19-Jul-2025
HD Live streaming from Space Station
objects crossing your sky now

DELTA 1 DEB

Track DELTA 1 DEB now!
10-day predictions


NORAD ID: 7838
Int'l Code: 1972-058J
Perigee: 672.6 km
Apogee: 1,117.4 km
Inclination: 98.1 °
Period: 102.7 minutes
Semi major axis: 7266 km
RCS: 0.2743 m2 (medium)
Launch date: July 23, 1972
Source: United States (US)
Launch site: AIR FORCE WESTERN TEST RANGE (AFWTR)

Note: This is SATELLITE DEBRIS
Your satellite tracking list
COSMOS 830
Track 1 satellite(s)




NASA's NSSDC Master Catalog

Two Line Element Set (TLE):
1 07838U 72058J   25199.64478510  .00000444  00000-0  21201-3 0  9990
2 07838  98.1089 327.4567 0306040   0.4113 359.7252 14.01711228523289
Source of the keplerian elements: AFSPC